Regional Weather Roundup
Issued by NWS

Home | Current Version | Previous Version | Graphics & Text | Print | Product List | Glossary On
Versions: 1 2 3 4 5 6 7 8 9 10 11 12 13 14 15 16 17 18 19 20 21 22 23 24 25 26 27 28 29 30 31 32 33 34 35 36 37 38 39 40 41 42 43 44 45 46 47 48 49 50
000
ASUS43 KLOT 051208
RWRIL

ILLINOIS REGIONAL WEATHER ROUNDUP
NATIONAL WEATHER SERVICE CHICAGO/ROMEOVILLE IL
700 AM CDT THU MAY 05 2016

NOTE: "FAIR" INDICATES FEW OR NO CLOUDS BELOW 12,000 FEET WITH NO
SIGNIFICANT WEATHER AND/OR OBSTRUCTIONS TO VISIBILITY.

* THESE STATIONS ARE NOT UNDER NWS QUALITY CONTROL. THEY ALSO MAY NOT
  REPORT WEATHER SUCH AS PRECIPITATION OR FOG.

ILZ001-002-007-009-015-016-024-051300-
NORTHWEST ILLINOIS

CITY           SKY/WX    TMP DP  RH WIND       PRES   REMARKS
MOLINE         SUNNY     45  36  70 NE3       30.01R
6HR MIN TEMP:  38; 6HR MAX TEMP:  51;

STERLING*      SUNNY     41  36  81 N9        30.01R
SAVANNA*       SUNNY     41  35  80 N6        30.02R
$$

ILZ003-004-008-010-011-017-018-051300-
NORTH CENTRAL ILLINOIS

CITY           SKY/WX    TMP DP  RH WIND       PRES   REMARKS
ROCKFORD       SUNNY     41  34  76 N13       30.00R
6HR MIN TEMP:  39; 6HR MAX TEMP:  41;

FREEPORT*      SUNNY     38  33  83 N7        30.02R WCI  33
ROCHELLE*      SUNNY     40  34  79 N12       29.98R
DE KALB*       SUNNY     40  35  82 N12       29.97R
$$

ILZ005-006-012>014-019>023-051300-
NORTHEAST ILLINOIS

CITY           SKY/WX    TMP DP  RH WIND       PRES   REMARKS
CHICAGO-OHARE  MOSUNNY   42  34  73 N15       29.95R
6HR MIN TEMP:  41; 6HR MAX TEMP:  43;

CHICAGO-MIDWAY PTSUNNY   43  34  70 N13       29.95R
6HR MIN TEMP:  42; 6HR MAX TEMP:  44; 6HR PCP: TRACE;

AURORA         SUNNY     42  34  73 N10       29.97R
6HR MIN TEMP:  38; 6HR MAX TEMP:  42;

LANSING*       CLOUDY    42  37  82 N15G22    29.94R
JOLIET*        SUNNY     44  36  72 N10G18    29.95R
WAUKEGAN       SUNNY     41  34  76 N7        29.96R
6HR MIN TEMP:  39; 6HR MAX TEMP:  42;

DUPAGE AIRPORT SUNNY     41  33  73 N10       29.95R
6HR MIN TEMP:  39; 6HR MAX TEMP:  42;

KANKAKEE*      CLOUDY    43  36  76 N12G18    29.94R
WHEELING       SUNNY     42  34  73 N10       29.97R
6HR MIN TEMP:  40; 6HR MAX TEMP:  43;

MORRIS*        SUNNY     41  35  80 N3        29.95R
ROMEOVILLE*    CLOUDY    42  34  72 NE14      29.95R
NORTHERLY ISL    N/A     42  36  79 N23         N/A
NORTHERLY ISL    N/A     42  36  79 N23         N/A
$$

LMZ740>746-051300-
SOUTHERN LAKE MICHIGAN

STATION/POSITION SKY/WX   TEMP    WIND        PRES    VSBY  WAVE
                          AIR SEA DIR/SP/G                  HT/PER
                          (F)     (DEG/KT/KT) (MB)    (MI)  (FT/S)
SOUTHERN BUOY              40 40   10/ 17/ 21 1013.5R         6/ 7
WILMETTE HARBOR            41 43   20/ 19/ 25   N/A           9/ 7
BURNHAM HARBOR             42      10/ 16/ 22   N/A
CALUMET HARBOR             41     330/ 15/ 22 1012.8R
BURNS HARBOR               42     360/ 18/ 22 1013.2R
MICHIGAN CITY              42     350/ 20/ 23   N/A
ST. JOSEPH                 44 46                N/A           5/ 8
$$

ILZ025>027-034>036-040-047-049-050-058-095>099-051300-
WEST-CENTRAL ILLINOIS

CITY           SKY/WX    TMP DP  RH WIND       PRES   REMARKS
QUINCY         SUNNY     44  37  76 N6        30.00R
GALESBURG*     SUNNY     40  37  89 NW3       30.01R
MACOMB*        SUNNY     40  38  92 NW7       30.03R
JACKSONVILLE*  SUNNY     43  38  83 NW6       29.98R
PITTSFIELD*    SUNNY     45  38  78 NW6       30.00R
$$

ILZ028>032-037-038-041>044-048-051>054-059>061-051300-
CENTRAL ILLINOIS

CITY           SKY/WX    TMP DP  RH WIND       PRES   REMARKS
PONTIAC        CLOUDY    42  38  86 N15       29.95R
BLOOMINGTON    PTSUNNY   40  37  89 N12       29.96R
DECATUR        MOSUNNY   42  35  76 N17       29.94R
PEORIA         SUNNY     42  36  79 N7        29.98R
6HR MIN TEMP:  41; 6HR MAX TEMP:  48;

LACON*         SUNNY     41  35  80 N6        29.97R
LINCOLN*         N/A     42  37  82 N8        29.96
SPRINGFIELD    SUNNY     44  37  76 N9        29.97R
6HR MIN TEMP:  42; 6HR MAX TEMP:  50;

TAYLORVILLE    SUNNY     41  36  81 N17       29.95R
6HR MIN TEMP:  40; 6HR MAX TEMP:  49;

$$

ILZ033-039-045-046-055>057-062-063-051300-
EAST-CENTRAL ILLINOIS

CITY           SKY/WX    TMP DP  RH WIND       PRES   REMARKS
CHAMPAIGN      CLOUDY    42  37  82 N13       29.91R
RANTOUL*       CLOUDY    45  39  79 N13G23    29.91R
MATTOON        CLOUDY    42  36  79 N15       29.89R
PARIS*         CLOUDY    43  40  90 N7        29.89R
$$

ILZ079-100>102-051300-
SOUTHWEST ILLINOIS

CITY           SKY/WX    TMP DP  RH WIND       PRES   REMARKS
ALTON          SUNNY     45  38  76 NW5       29.96R
BELLEVILLE     SUNNY     47  40  76 N5        29.94R
CAHOKIA*       SUNNY     49  38  65 N10       29.96R
SPARTA*        SUNNY     47  40  76 NW6       29.94R
$$

ILZ064>066-069>071-074>076-080>082-084>086-088>090-092>094-051300-
SOUTH-CENTRAL ILLINOIS

CITY           SKY/WX    TMP DP  RH WIND       PRES   REMARKS
CARBONDALE     SUNNY     47  40  76 NW7       29.91R
6HR MIN TEMP:  44; 6HR MAX TEMP:  48;

CAIRO*         SUNNY     49  41  74 NW8       29.90R
EFFINGHAM*     CLOUDY    44  39  82 N13       29.92R
MARION         SUNNY     48  41  76 NW9       29.89R
MT. VERNON     SUNNY     46  36  66 N6        29.90R
CENTRALIA*     SUNNY     47  40  78 N9        29.91R
SALEM*         MOSUNNY   46  39  77 N8        29.91R
METROPOLIS*    SUNNY     49  43  79 NW7       29.88R
$$

ILZ067-068-072-073-078-083-087-091-051300-
SOUTHEAST ILLINOIS

CITY           SKY/WX    TMP DP  RH WIND       PRES   REMARKS
LAWRENCEVILLE  CLOUDY    45  38  76 N13G22    29.87R
FLORA*         MOSUNNY   45  38  77 N9G17     29.90R
FAIRFIELD*     SUNNY     46  38  75 N14       29.88R
HARRISBURG*    MOSUNNY   48  41  77 N9        29.89R
ROBINSON*      CLOUDY    43  38  80 N13       29.87R
CARMI*         SUNNY     46  39  75 N16G25    29.87R
$$

ABBREVIATIONS USED IN REMARKS
   TC - TEMPERATURE IN CELSIUS
  WCI - WIND CHILL INDEX
   HX - HEAT INDEX
  VSB - VISIBILITY
$$





USA.gov is the U.S. government's official web portal to all federal, state and local government web resources and services.